Weather History for Buffalo, WY

Change the Weather History Date:

Sunday, February 24, 2013

  Actual Average Record
Temperature  
Mean Temperature 22 °F 29 °F  
Max Temperature 29 °F 40 °F 59 °F (2009)
Min Temperature 14 °F 19 °F -15 °F (2003)
Degree Days  
Heating Degree Days 43 36  
Month to date heating degree days 914 894  
Since 1 July heating degree days 4792 5101  
Cooling Degree Days 0 0  
Month to date cooling degree days 0 0  
Year to date cooling degree days 0 0  
Moisture  
Dew Point 17 °F    
Average Humidity 69    
Maximum Humidity 88    
Minimum Humidity 50    
Precipitation  
Precipitation T in 0.01 in 0.03 in (2000)
Month to date precipitation 0.13 0.30  
Year to date precipitation 0.61 0.72  
Sea Level Pressure  
Sea Level Pressure 30.02 in    
Wind  
Wind Speed 16 mph (NNW)    
Max Wind Speed 33 mph    
Max Gust Speed 41 mph    
Visibility 6 miles    
Events Snow    
T = Trace of Precipitation, MM = Missing Value Source: NWS Daily Summary

Daily Weather History Graph

Daily Weather History Graph

Search for Another Location

Airport:

Trip Planner

Search our weather history database for the weather conditions in past years. The results will help you decide how hot, cold, wet, or windy it might be!

Date:

Astronomy

Feb. 24, 2013 Rise Set
Actual Time 6:52 AM MST 5:48 PM MST
Civil Twilight 6:22 AM MST 6:18 PM MST
Nautical Twilight 5:49 AM MST 6:51 PM MST
Astronomical Twilight 5:15 AM MST 7:25 PM MST
Moon 5:02 PM MST (2/24) 5:51 AM MST (2/24)
Length of Visible Light 11h 55m
Length of Day
10h 56m
Waxing Gibbous, 99% of the Moon is Illuminated
Feb 24
Waxing Gibbous
Feb 25
Full
Mar 4
Last Quarter
Mar 11
New
Mar 19
First Quarter

Hourly Weather History & Observations

Time (MST) Temp. Windchill Dew Point Humidity Pressure Visibility Wind Dir Wind Speed Gust Speed Precip Events Conditions
12:01 AM 24.8 °F 10.0 °F 19.4 °F 80% 29.85 in 5.0 mi NW 21.9 mph 31.1 mph 0.00 in   Haze
12:13 AM 24.8 °F 10.3 °F 17.6 °F 74% 29.85 in 10.0 mi NNW 20.7 mph 29.9 mph 0.00 in   Overcast
12:34 AM 24.8 °F 9.6 °F 17.6 °F 74% 29.86 in 10.0 mi NNW 23.0 mph 35.7 mph 0.00 in   Mostly Cloudy
12:53 AM 26.1 °F 10.7 °F 17.1 °F 69% 29.92 in 10.0 mi NNW 25.3 mph 35.7 mph 0.00 in   Mostly Cloudy
1:53 AM 24.1 °F 9.0 °F 19.0 °F 81% 29.96 in 9.0 mi NNW 21.9 mph 28.8 mph N/A   Overcast
2:53 AM 24.1 °F 8.3 °F 19.9 °F 84% 29.98 in 4.0 mi NNW 24.2 mph 36.8 mph N/A   Overcast
3:18 AM 24.8 °F 8.4 °F 21.2 °F 86% 29.89 in 2.5 mi NNW 27.6 mph 38.0 mph 0.00 in   Mostly Cloudy
3:37 AM 24.8 °F 9.3 °F 21.2 °F 86% 29.90 in 1.5 mi NNW 24.2 mph 35.7 mph 0.00 in Snow Light Snow
3:46 AM 24.8 °F 9.0 °F 21.2 °F 86% 29.90 in 1.5 mi NNW 25.3 mph 38.0 mph 0.00 in Snow Light Snow
3:53 AM 25.0 °F 8.9 °F 21.0 °F 85% 30.00 in 1.8 mi NNW 26.5 mph 39.1 mph 0.00 in Snow Light Snow
3:58 AM 24.8 °F 9.0 °F 21.2 °F 86% 29.91 in 2.0 mi NNW 25.3 mph 39.1 mph 0.00 in Snow Light Snow
4:04 AM 24.8 °F 8.4 °F 21.2 °F 86% 29.91 in 1.8 mi NNW 27.6 mph 36.8 mph 0.00 in Snow Light Snow
4:17 AM 24.8 °F 9.0 °F 21.2 °F 86% 29.91 in 1.5 mi NNW 25.3 mph 39.1 mph 0.00 in Snow Light Snow
4:32 AM 24.8 °F 8.1 °F 21.2 °F 86% 29.92 in 2.5 mi NNW 28.8 mph 38.0 mph 0.00 in Snow Light Snow
5:13 AM 24.8 °F 9.0 °F 21.2 °F 86% 29.93 in 3.0 mi NNW 25.3 mph 40.3 mph 0.00 in Snow Light Snow
5:21 AM 24.8 °F 8.7 °F 19.4 °F 80% 29.94 in 5.0 mi NNW 26.5 mph 40.3 mph 0.00 in Snow Light Snow
5:53 AM 25.0 °F 9.2 °F 19.9 °F 81% 30.05 in 10.0 mi NNW 25.3 mph 39.1 mph 0.00 in   Overcast
6:26 AM 24.8 °F 8.4 °F 19.4 °F 80% 29.95 in 1.8 mi NNW 27.6 mph 38.0 mph 0.00 in Snow Light Snow
6:47 AM 24.8 °F 8.1 °F 21.2 °F 86% 29.96 in 0.8 mi NNW 28.8 mph 39.1 mph 0.00 in Snow Light Snow
6:48 AM 24.1 °F 7.1 °F 21.0 °F 88% 30.06 in 0.8 mi NNW 28.8 mph 39.1 mph 0.00 in Snow Light Snow
7:00 AM 24.8 °F 9.0 °F 21.2 °F 86% 29.96 in 1.2 mi NNW 25.3 mph 38.0 mph 0.00 in Snow Light Snow
7:05 AM 24.8 °F 7.3 °F 21.2 °F 86% 29.97 in 0.8 mi NNW 32.2 mph 41.4 mph 0.00 in Snow Light Snow
7:14 AM 24.8 °F 7.9 °F 19.4 °F 80% 29.97 in 1.2 mi NNW 29.9 mph 40.3 mph 0.00 in Snow Light Snow
7:24 AM 24.8 °F 8.1 °F 19.4 °F 80% 29.97 in 2.0 mi NNW 28.8 mph 39.1 mph 0.00 in Snow Light Snow
7:36 AM 24.8 °F 7.6 °F 19.4 °F 80% 29.98 in 4.0 mi NNW 31.1 mph 40.3 mph 0.00 in   Partly Cloudy
7:53 AM 24.1 °F 8.0 °F 19.9 °F 84% 30.09 in 10.0 mi NNW 25.3 mph 38.0 mph 0.00 in   Clear
8:27 AM 24.8 °F 9.0 °F 19.4 °F 80% 30.01 in 10.0 mi NNW 25.3 mph 38.0 mph N/A   Mostly Cloudy
8:53 AM 25.0 °F 9.5 °F 19.0 °F 78% 30.13 in 2.5 mi NNW 24.2 mph 36.8 mph N/A Snow Light Snow
9:00 AM 24.8 °F 9.3 °F 19.4 °F 80% 30.03 in 5.0 mi NNW 24.2 mph 39.1 mph 0.00 in Snow Light Snow
9:53 AM 25.0 °F 9.5 °F 19.0 °F 78% 30.15 in 10.0 mi NNW 24.2 mph 33.4 mph 0.00 in   Overcast
10:53 AM 24.1 °F 8.3 °F 18.0 °F 77% 30.16 in 10.0 mi North 24.2 mph 34.5 mph N/A   Clear
11:53 AM 27.0 °F 13.5 °F 19.0 °F 72% 30.16 in 10.0 mi North 19.6 mph 25.3 mph N/A   Clear
12:53 PM 28.0 °F 15.3 °F 16.0 °F 61% 30.14 in 10.0 mi North 18.4 mph 24.2 mph N/A   Clear
1:53 PM 28.9 °F 16.1 °F 14.0 °F 54% 30.13 in 10.0 mi North 19.6 mph 24.2 mph N/A   Clear
2:53 PM 28.9 °F 18.6 °F 12.9 °F 51% 30.13 in 10.0 mi North 12.7 mph 23.0 mph N/A   Clear
3:53 PM 28.0 °F 20.8 °F 14.0 °F 56% 30.14 in 10.0 mi North 6.9 mph - N/A   Clear
4:53 PM 27.0 °F - 14.0 °F 58% 30.14 in 10.0 mi Calm Calm - N/A   Clear
5:53 PM 21.9 °F 17.2 °F 10.0 °F 60% 30.16 in 10.0 mi SW 3.5 mph - N/A   Clear
6:53 PM 19.9 °F 13.4 °F 7.0 °F 57% 30.18 in 10.0 mi SSW 4.6 mph - N/A   Clear
7:53 PM 21.9 °F 15.7 °F 7.0 °F 53% 30.17 in 10.0 mi South 4.6 mph - N/A   Clear
8:53 PM 19.9 °F 10.1 °F 7.0 °F 57% 30.15 in 10.0 mi South 8.1 mph - N/A   Clear
9:53 PM 19.0 °F 11.1 °F 8.1 °F 62% 30.15 in 10.0 mi SSW 5.8 mph - N/A   Clear
10:53 PM 19.9 °F 10.1 °F 5.0 °F 52% 30.13 in 10.0 mi SSW 8.1 mph - N/A   Clear
11:53 PM 17.1 °F - 3.9 °F 56% 30.11 in 10.0 mi Calm Calm - N/A   Clear